Retour au catalogue

STARLINK-4750

ActifCommunicationsVLEO
NORAD 53841·PAYLOAD·🇺🇸 United States

Lancé Sep 19, 2022 depuis Cape Canaveral Space Force Station

Loading…

Prochains Passages (prochaines 24 heures)

TLE

FraisSource: CelesTrak SupGP

Époque: Sep 14, 2026, 22:15 UTC

1 53841C 22114Z   26257.92756944  .00174790  00000+0  96277-2 0  2576
2 53841  53.1595 163.9433 0001342  87.9414 161.1291 15.13427134    16

Suivez STARLINK-4750 en temps réel avec AllMySat

Download on the App Store